Wind_Speed
13 10 8 6 6 14 24 27 26 27 31 33 35 38 35 35 34 34 35 35 34 32
15 11 8 4 4 10 18 21 21 25 28 30 35 37 37 36 34 30 33 36 35 33
16 13 12 11 12 14 18 19 26 25 28 32 30 33 37 33 35 32 31 33 34 33
20 19 17 16 17 18 21 22 24 28 31 30 31 33 31 30 29 31 30 34 33 33
22 21 19 19 19 20 23 24 25 25 30 32 32 33 33 30 28 31 32 34 32 32
21 22 21 22 23 22 23 25 24 26 30 32 34 32 33 33 32 32 35 34 34 33
26 26 24 23 23 25 24 26 25 27 28 31 33 33 31 33 33 33 33 35 35 35
26 25 25 24 24 26 26 26 28 28 27 29 31 32 33 32 33 32 31 34 34 34
25 28 28 28 28 28 27 26 27 28 27 24 28 31 33 31 31 32 32 31 33 31
29 30 30 30 29 28 29 28 29 28 25 24 28 28 31 31 34 33 30 30 30 29
29 31 32 30 29 29 28 28 28 27 24 24 27 29 30 34 35 32 32 28 30 30
29 29 30 30 31 28 28 28 27 27 22 24 26 31 32 38 30 26 27 28 28 27
28 29 29 31 30 27 26 25 21 17 15 26 28 30 37 39 27 28 27 25 26 26
31 31 31 32 30 27 27 23 21 17 13 8 10 26 36 40 34 32 28 26 22 22
Wind_Direction
74 72 84 125 169 182 227 245 247 249 242 240 237 238 236 234 231 230 226 222 213 217
43 32 10 348 294 254 246 248 251 252 250 248 241 240 239 231 233 235 231 222 217 215
24 16 359 341 317 294 280 267 253 254 253 243 232 232 236 227 231 223 221 216 215 216
16 6 357 340 320 306 293 281 267 254 251 248 234 231 220 218 224 216 214 212 214 215
7 358 349 335 321 310 297 285 269 268 258 246 238 227 219 220 218 214 205 211 209 210
359 351 339 330 324 316 303 292 280 265 257 242 237 225 218 220 222 216 215 213 207 206
355 347 337 326 319 312 303 297 286 270 262 241 234 229 216 218 223 220 216 214 214 211
346 337 334 330 321 314 311 302 295 282 271 243 233 226 215 219 221 217 208 209 212 211
343 341 338 332 326 318 313 308 299 282 269 245 227 221 221 226 217 210 202 198 205 214
348 340 335 329 324 320 314 308 299 282 271 245 232 236 234 234 211 206 200 198 199 204
346 341 335 330 326 320 314 306 295 288 275 248 233 235 233 223 207 202 201 205 204 207
347 341 336 332 328 322 317 309 301 291 276 234 235 237 230 215 199 189 189 202 209 215
351 350 344 339 333 329 325 315 318 306 269 241 240 231 224 209 182 177 184 193 204 212
4 359 353 350 350 347 346 347 3 10 2 346 228 221 213 193 187 185 173 180 185 192
Height
713 716 719 720 724 721 731 735 732 735 739 738 739 742 745 747 749 752 756 759 762 767
715 715 717 717 719 724 728 728 727 729 729 729 733 734 737 739 742 745 749 751 755 758
718 718 716 714 717 719 720 720 720 721 722 724 724 726 729 732 733 736 740 744 746 752
717 715 712 712 715 715 715 715 714 714 716 716 716 718 720 723 726 728 732 736 738 744
716 717 717 717 716 714 712 710 710 709 709 709 708 709 711 714 719 721 724 727 731 736
722 720 718 715 712 710 708 705 701 701 699 698 700 700 702 706 711 713 716 719 724 728
717 716 715 713 708 707 704 698 693 692 690 689 691 692 694 697 703 707 709 712 717 721
721 721 716 709 705 700 695 689 686 684 682 680 682 684 686 690 696 700 702 705 710 715
723 716 710 706 700 694 688 683 681 677 674 672 673 676 679 684 688 692 694 698 703 709
720 716 710 704 698 691 684 680 674 669 667 666 668 670 674 678 681 685 688 691 697 703
723 715 709 703 696 689 682 675 670 663 661 660 661 663 666 670 674 677 680 685 692 698
725 719 712 704 695 687 679 672 664 658 655 652 654 655 658 663 667 671 674 681 689 693
729 721 713 705 695 687 679 670 662 652 649 648 647 648 652 657 660 663 671 678 684 689
730 723 716 707 696 686 677 668 660 651 649 647 642 644 645 650 655 661 665 674 681 685